Regional Weather Roundup
Issued by NWS Wakefield, VA

Home | Current Version | Previous Version | Graphics & Text | Print | Product List | Glossary On
Versions: 1 2 3 4 5 6 7 8 9 10 11 12 13 14 15 16 17 18 19 20 21 22 23 24 25 26 27 28 29 30 31 32 33 34 35 36 37 38 39 40 41 42 43 44 45 46 47 48 49 50
000
ASUS41 KAKQ 301212
RWRAKQ

REGIONAL WEATHER ROUNDUP
NATIONAL WEATHER SERVICE WAKEFIELD VA
800 AM EDT SUN AUG 30 2015

Note: "fair" indicates few or no clouds below 12,000 feet with no
significant weather and/or obstructions to visibility. * = Denotes
station may not report precipitation (e.g., rain,snow,etc.),
thunder or fog.

VAZ042-051-052>054-056-301300-
NORTHERN VIRGINIA

CITY           SKY/WX    TMP DP  RH WIND       PRES   REMARKS
WASH NATIONAL  PTSUNNY   71  64  78 S8        30.13R
DULLES         PTSUNNY   68  64  87 S3        30.13R
FORT BELVOIR   MOSUNNY   66  65  95 CALM      30.13R
QUANTICO       MOSUNNY   70  63  78 SW6       30.14R
FREDERICKSBRG* MOSUNNY   71  65  81 CALM      30.13R
STAFFORD*      MOSUNNY   67  63  86 S3        30.17R
WARRENTON      MOSUNNY   67  66  94 CALM      30.13R
CULPEPER*      MOSUNNY   64  63  99 CALM      30.14S FOG
MANASSAS*      NOT AVBL
LEESBURG*      FAIR      68  68 100 CALM      30.14R
WINCHESTER     MOSUNNY   72  61  68 SW5       30.14R
FRONT ROYAL*   FAIR      68  61  77 S6        30.13S
LURAY*         FAIR      63  63 100 CALM      30.16R
$$

VAZ048-049-060>072-079>083-301300-
CENTRAL AND SOUTH CENTRAL VIRGINIA

CITY           SKY/WX    TMP DP  RH WIND       PRES   REMARKS
RICHMOND       CLOUDY    69  63  81 CALM      30.15R
CHESTERFIELD*  FAIR      68  54  60 CALM      30.16R
PETERSBURG*    CLOUDY    68  68 100 CALM      30.16R
HANOVER        PTSUNNY   68  65  90 CALM      30.16R
TAPPAHANNOCK*  PTSUNNY   67  63  85 CALM      30.15R
QUINTON*       FAIR      65  63  96 CALM      30.14S
CHARLOTTSVILLE CLOUDY    68  64  87 CALM      30.14S
GORDONSVILLE*  FAIR      67  64  91 SW3       30.13S
ORANGE*        PTSUNNY   68  64  88 CALM      30.15R
LOUISA*        CLOUDY    68  63  83 CALM      30.13S
BUMPASS*       FAIR      66  63  91 CALM      30.14S
FARMVILLE*     CLOUDY    67  66  97 CALM      30.14R
CREWE*         FAIR     N/A N/A N/A CALM      30.15S
FORT PICKETT*  FAIR      68  65  92 SW3       30.16R
CHASE CITY*    FAIR      69  67  93 CALM      30.17R
CLARKSVILLE*   FAIR      66  63  88 CALM      30.17R
SOUTH HILL*    MOSUNNY   65  64  94 S3        30.22R
LAWRENCEVILLE* FAIR      66  64  94 CALM      30.17R
EMPORIA*       MOSUNNY   63  63 100 CALM      30.17R
$$

VAZ088>098-301300-
SOUTHEAST VIRGINIA

CITY           SKY/WX    TMP DP  RH WIND       PRES   REMARKS
NORFOLK        SUNNY     72  66  81 CALM      30.14R
VIRGINIA BEACH PTSUNNY   73  66  78 CALM      30.13S
NORFOLK NAVAL  PTSUNNY   73  67  81 CALM      30.16R
WEST POINT*    CLOUDY    70  67  89 CALM      30.16S
SALUDA*        FAIR      70  65  85 CALM      30.14S
NEWPORT NEWS   PTSUNNY   72  65  78 W3        30.15R
LANGLEY AFB    MOSUNNY   71  67  89 W5        30.14R
FORT EUSTIS    PTSUNNY   71  71 100 CALM      30.14R
WILLIAMSBURG*  PTSUNNY   72  70  94 CALM      30.16R
HR EXEC AP*      N/A     64  63  94 CALM      30.18R
FRANKLIN*      PTSUNNY   65  63  91 CALM      30.16R
WAKEFIELD      PTSUNNY   67  63  87 CALM      30.15R
$$

VAZ020-022-025-037-045-301300-
WEST CENTRAL AND SOUTHWEST VIRGINIA

CITY           SKY/WX    TMP DP  RH WIND       PRES   REMARKS
STAUNTON*      CLOUDY    67  62  85 CALM      30.20R
WAYNESBORO*    FAIR      67  62  85 MISG      30.19R
HOT SPRINGS VA CLOUDY    65  58  77 W8        30.28R
LYNCHBURG      CLOUDY    66  63  90 S3        30.18R
DANVILLE       PTSUNNY   68  64  87 CALM      30.17R
SOUTH BOSTON*  FAIR      67  65  94 CALM      30.17R
MARTINSVILLE   CLOUDY    65  65 100 CALM      30.21R
ROANOKE        CLOUDY    68  62  81 CALM      30.20R
BLACKSBURG     CLOUDY    64  63  97 CALM      30.26R FOG
DUBLIN*        CLOUDY    65  65  99 CALM      30.25R
MARION*        CLOUDY    63  61  93 CALM      30.28R
HILLSVILLE*    CLOUDY    62  59  90 S5        30.25R
RICHLANDS*     FAIR      64  32  29 CALM      30.25R
WISE*          CLOUDY    66  57  72 CALM      30.26R
ABINGDON*      CLOUDY    67  60  78 CALM      30.23R
$$

MDZ021>025-VAZ099-100-301300-
SOUTHERN MARYLAND AND THE DELMARVA PENINSULA

CITY           SKY/WX    TMP DP  RH WIND       PRES   REMARKS
PATUXENT RIVER CLOUDY    70  65  84 CALM      30.14R
BAY BRIDGE APT   N/A     72  61  68 SW6       30.13R
LEONARDTOWN    MOSUNNY   68  63  83 CALM      30.15R
DOVER          SUNNY     69  69 100 S3        30.12R
GEORGETOWN     MOSUNNY   68  64  87 SW3       30.14S
EASTON         MOSUNNY   66  66 100 CALM      30.16
CAMBRIDGE      MOSUNNY   68  63  83 CALM      30.13R
SALISBURY      PTSUNNY   66  63  90 CALM      30.14R
OCEAN CITY     PTSUNNY   71  64  78 CALM      30.14R
WALLOPS ISLAND MOSUNNY   74  67  78 CALM      30.15R
ACCOMACK*      MOSUNNY   64  55  72 CALM      30.14S
$$

NCZ012>017-030>032-301300-
NORTH CENTRAL AND EASTERN NORTH CAROLINA

CITY           SKY/WX    TMP DP  RH WIND       PRES   REMARKS
ROANOKE RAPIDS FAIR      63  61  94 CALM      30.17R
RALEIGH        PTSUNNY   69  64  84 CALM      30.17R
ELIZABETH CITY SUNNY     70  65  84 CALM      30.15R
AHOSKIE*       MOSUNNY   63  61  93 CALM      30.17R
EDENTON*       SUNNY     67  65  94 N3        30.15R
CURRITUCK*     NOT AVBL
KILL DEVIL HLS SUNNY     76  72  86 N3        30.12R
MANTEO         SUNNY     76  72  88 N6        30.13S
CAPE HATTERAS  CLOUDY    77  73  87 N5        30.13R
TARBORO*       FAIR      65  64  95 CALM      30.17S
GOLDSBORO      MOSUNNY   68  64  86 CALM      30.15R
WASHINGTON     SUNNY     67  64  91 CALM      30.16R
GREENVILLE     MOSUNNY   66  66 100 CALM      30.17S FOG
NEW BERN       MOSUNNY   70  66  87 N3        30.17R
WILMINGTON     CLOUDY    72  66  81 CALM      30.15R
$$

VAZ048-301300-
ELSEWHERE

CITY           SKY/WX    TMP DP  RH WIND       PRES   REMARKS
HARRISBURG PA  MOSUNNY   70  65  84 CALM      30.11R
BALTIMORE      PTSUNNY   68  64  87 CALM      30.12R
ANNAPOLIS      SUNNY     69  62  78 S3        30.13R
ANDREWS AFB    MOSUNNY   71  63  76 SW8       30.12R
PHILADELPHIA   MOSUNNY   73  64  73 SW7       30.13R
HENDERSON NC   MOSUNNY   66  61  84 CALM      30.17S
GREENSBORO     CLOUDY    71  64  78 CALM      30.18R
ROCKY MOUNT    MOSUNNY   68  65  90 CALM      30.16S
$$

VAZ100-301300-
MARINE

STATION/POSITION TIME  TEMP    WIND        PRES    WAVE   SWELL
                       AIR SEA DIR/SP/G            HT/PER HT/PER
                 (UTC) (F)     (DEG/KT/KT) (MB)    (FT/S) (FT/S)
15NM E FENWICK I 1150   75 78  290/  4/  4 1020.5R   3/11   3/11
GOOSES REEF MD   1200   74 79  230/  8/ 10 1021.3R
POTOMAC MD       1200   73 79  250/  6/  8 1019.5R
STINGRAY PT      1100   73 79  280/  8/ 10 1020.9R   0
JAMESTOWN VA     1200   71 80  210/  2/  4   N/A
CHESAPEAKE LGHT  1100   76     360/  5/  5 1021.0R
CAPE HENRY BUOY  1128      78                N/A     3/10   2/11
1ST LANDING BUOY 1200      78              1020.3R   2/ 4
CAPE CHARLES BUO 1126      78                N/A     3/11   3/11
OFFSHORE WE BUOY 1111      78                N/A     4/10   3/10
64NM E OF VA BCH 1150   78 76   30/  8/ 10 1019.6R   4/11   3/11
44100 DUCK FRF   1124      78                N/A     4/10   2/11
44056 DUCK FRF   1111      78                N/A     4/10   2/11
DIAMOND SHLS NC  1150   78 83  330/  8/ 12 1020.0R   4/10   3/10
CAPE LOOKOUT NC  1200   75     350/ 11/ 13 1020.0R
$$



USA.gov is the U.S. government's official web portal to all federal, state and local government web resources and services.